This is the latest recevied weather packets stored in our database for station/object s59zo-6. If no packets are shown the sender has not sent any weather packets the latest 10 day(s).
| Time | Temp. | Humidity | Pressure | Rain* | Wind** | Luminosity | Snow |
|---|---|---|---|---|---|---|---|
| 1787507705 | 24.44° C | 46% | 1022.4 hPa | 0 mm | - | - | - |
| 1787507405 | 25° C | 45% | 1022.2 hPa | 0 mm | - | - | - |
| 1787507104 | 25.56° C | 45% | 1022.3 hPa | 0 mm | - | - | - |
| 1787506805 | 25.56° C | 44% | 1022.3 hPa | 0 mm | - | - | - |
| 1787506504 | 25.56° C | 43% | 1022.3 hPa | 0 mm | - | - | - |
| 1787506206 | 26.11° C | 43% | 1022.3 hPa | 0 mm | - | - | - |
| 1787505905 | 26.11° C | 43% | 1022.3 hPa | 0 mm | - | - | - |
| 1787505605 | 26.67° C | 42% | 1022.3 hPa | 0 mm | - | - | - |
| 1787505305 | 26.67° C | 41% | 1022.4 hPa | 0 mm | - | - | - |
| 1787505005 | 26.67° C | 41% | 1022.3 hPa | 0 mm | - | - | - |
| 1787504704 | 27.22° C | 41% | 1022.2 hPa | 0 mm | - | - | - |
| 1787504405 | 27.22° C | 41% | 1022.2 hPa | 0 mm | - | - | - |
| 1787504104 | 27.78° C | 37% | 1022.3 hPa | 0 mm | - | - | - |
| 1787503805 | 27.22° C | 41% | 1022.2 hPa | 0 mm | - | - | - |
| 1787503505 | 27.22° C | 41% | 1022.3 hPa | 0 mm | - | - | - |
| 1787503205 | 27.22° C | 41% | 1022.4 hPa | 0 mm | - | - | - |
| 1787502904 | 27.22° C | 40% | 1022.3 hPa | 0 mm | - | - | - |
| 1787502605 | 27.22° C | 40% | 1022.3 hPa | 0 mm | - | - | - |
| 1787502304 | 27.78° C | 36% | 1022.5 hPa | 0 mm | - | - | - |
| 1787502004 | 27.78° C | 36% | 1022.5 hPa | 0 mm | - | - | - |
| 1787501705 | 27.78° C | 35% | 1022.6 hPa | 0 mm | - | - | - |
| 1787501405 | 27.22° C | 40% | 1022.4 hPa | 0 mm | - | - | - |
| 1787501105 | 27.22° C | 40% | 1022.7 hPa | 0 mm | - | - | - |
| 1787500806 | 27.22° C | 40% | 1022.7 hPa | 0 mm | - | - | - |
| 1787500504 | 27.22° C | 40% | 1022.5 hPa | 0 mm | - | - | - |
* Rain latest hour (hover to see other rain measurements)
** Current wind speed in m/s (hover to see current wind gust speed)